DW8722 Weather Reports


Display with metric or nautical units.
time (UTC)temp
F
wind
direction
speed
MPH
gust
MPH
rain 1hr
in
rain 24hr
in
rain mn
in
humidity
%
barometer
mb
20260903094701 77 118 4.0 9.0 0.00 0.00 0.00 87 1012.0
20260903093706 77 119 4.0 12.0 0.00 0.00 0.00 87 1012.0
20260903092700 77 110 7.0 12.0 0.00 0.00 0.00 87 1012.2
20260903091705 77 123 4.0 13.0 0.00 0.00 0.00 86 1012.1
20260903090718 77 136 7.0 14.0 0.00 0.00 0.00 86 1012.3
20260903085644 78 118 7.0 15.0 0.00 0.00 0.00 85 1012.2
20260903084615 78 138 7.0 15.0 0.00 0.00 0.00 83 1012.1
20260903083622 79 94 6.0 14.0 0.00 0.00 0.00 83 1012.1
20260903080027 79 132 6.0 13.0 0.00 0.00 0.00 82 1012.1
20260903075035 79 136 7.0 13.0 0.00 0.00 0.00 82 1012.1
20260903074002 79 102 7.0 13.0 0.00 0.00 0.00 81 1012.0
20260903072936 79 123 8.0 16.0 0.00 0.00 0.00 80 1012.1
20260903071945 80 124 9.0 18.0 0.00 0.00 0.00 80 1012.1
20260903065740 80 99 6.0 15.0 0.00 0.00 0.00 78 1012.3
20260903063606 79 92 3.0 7.0 0.00 0.00 0.00 77 1012.3
20260903061455 79 101 3.0 9.0 0.00 0.00 0.00 77 1012.4
20260903060513 79 90 1.0 8.0 0.00 0.00 0.00 77 1012.6
20260903055533 79 84 0.0 2.0 0.00 0.00 0.00 76 1012.7
20260903054536 79 85 0.0 3.0 0.00 0.00 0.00 75 1012.7
20260903052402 80 115 3.0 8.0 0.00 0.00 0.00 74 1013.1
20260903051412 81 104 4.0 10.0 0.00 0.00 0.00 74 1013.1
20260903050356 81 165 7.0 12.0 0.00 0.00 0.00 73 1013.2
20260903045324 81 126 8.0 16.0 0.00 0.00 0.00 72 1013.1
20260903044255 82 173 5.0 11.0 0.00 0.00 0.00 71 1013.1
20260903043237 82 85 6.0 11.0 0.00 0.00 0.00 69 1012.9
20260903042250 82 107 5.0 11.0 0.00 0.00 0.00 68 1012.9
20260903040034 83 113 6.0 13.0 0.00 0.00 0.00 66 1013.0
20260903033910 84 102 5.0 11.0 0.00 0.00 0.00 65 1012.9
20260903031801 85 111 4.0 13.0 0.00 0.00 0.00 63 1012.8
20260903030803 86 136 7.0 13.0 0.00 0.00 0.00 62 1012.6
20260903025820 86 105 7.0 16.0 0.00 0.00 0.00 61 1012.7
20260903024825 87 109 6.0 16.0 0.00 0.00 0.00 60 1012.6
20260903023815 87 115 6.0 16.0 0.00 0.00 0.00 59 1012.6
20260903022824 88 136 7.0 16.0 0.00 0.00 0.00 58 1012.3
20260903021752 88 137 6.0 12.0 0.00 0.00 0.00 57 1012.1
20260903020803 88 99 6.0 12.0 0.00 0.00 0.00 56 1011.8
20260903015805 88 107 5.0 12.0 0.00 0.00 0.00 56 1011.6
20260903014749 89 78 5.0 11.0 0.00 0.00 0.00 55 1011.5
20260903013753 89 69 5.0 11.0 0.00 0.00 0.00 54 1011.4
20260903012736 90 94 7.0 12.0 0.00 0.00 0.00 54 1011.3
20260903011734 90 108 7.0 12.0 0.00 0.00 0.00 53 1011.2
20260903010758 90 89 7.0 16.0 0.00 0.00 0.00 52 1011.3
20260903005807 91 107 7.0 16.0 0.00 0.00 0.00 52 1011.1
20260903004739 91 59 7.0 14.0 0.00 0.00 0.00 53 1011.0
20260903003712 92 90 7.0 14.0 0.00 0.00 0.00 52 1010.9
20260903002640 92 113 5.0 12.0 0.00 0.00 0.00 52 1010.9
20260903001656 93 94 7.0 17.0 0.00 0.00 0.00 51 1010.9
20260903000704 94 105 9.0 20.0 0.00 0.00 0.00 50 1010.9
20260902235639 94 92 11.0 20.0 0.00 0.00 0.00 49 1010.9
20260902234618 95 94 4.0 12.0 0.00 0.00 0.00 47 1010.7
20260902232529 96 95 9.0 16.0 0.00 0.00 0.00 45 1010.6
20260902230413 97 97 6.0 12.0 0.00 0.00 0.00 42 1010.6
20260902225409 98 82 5.0 12.0 0.00 0.00 0.00 43 1010.5
20260902224413 98 76 6.0 15.0 0.00 0.00 0.00 42 1010.6
20260902223413 98 63 6.0 15.0 0.00 0.00 0.00 42 1010.5
20260902222434 98 94 7.0 16.0 0.00 0.00 0.00 42 1010.6
20260902221436 98 82 5.0 16.0 0.00 0.00 0.00 43 1010.5
20260902220425 98 87 6.0 14.0 0.00 0.00 0.00 42 1010.6
20260902214308 98 124 5.0 14.0 0.00 0.00 0.00 40 1010.7
20260902213255 98 119 6.0 14.0 0.00 0.00 0.00 40 1010.8
20260902211134 98 59 3.0 13.0 0.00 0.00 0.00 41 1011.1
20260902204954 98 83 5.0 15.0 0.00 0.00 0.00 42 1011.4
20260902203941 97 101 4.0 12.0 0.00 0.00 0.00 43 1011.6
20260902202915 98 108 4.0 12.0 0.00 0.00 0.00 42 1011.8
20260902201935 98 81 3.0 12.0 0.00 0.00 0.00 43 1011.9
20260902200950 97 54 5.0 13.0 0.00 0.00 0.00 44 1012.0
20260902195947 97 80 4.0 13.0 0.00 0.00 0.00 45 1012.1
20260902194923 97 37 2.0 11.0 0.00 0.00 0.00 45 1012.3
20260902193909 97 90 3.0 11.0 0.00 0.00 0.00 44 1012.4
20260902192844 97 42 4.0 10.0 0.00 0.00 0.00 44 1012.6
20260902191900 96 77 3.0 10.0 0.00 0.00 0.00 45 1012.7
20260902190839 96 103 5.0 11.0 0.00 0.00 0.00 46 1012.8
20260902185810 95 30 4.0 11.0 0.00 0.00 0.00 47 1013.1
20260902184820 96 67 2.0 9.0 0.00 0.00 0.00 47 1013.1
20260902183747 95 107 4.0 11.0 0.00 0.00 0.00 48 1013.4
20260902182726 95 51 4.0 13.0 0.00 0.00 0.00 49 1013.6
20260902181706 94 22 5.0 13.0 0.00 0.00 0.00 49 1013.8
20260902180712 94 54 3.0 12.0 0.00 0.00 0.00 50 1013.9
20260902175708 94 41 5.0 10.0 0.00 0.00 0.00 50 1014.3
20260902174708 94 107 2.0 12.0 0.00 0.00 0.00 52 1014.4
20260902173648 94 94 3.0 12.0 0.00 0.00 0.00 51 1014.5
20260902172617 93 95 4.0 11.0 0.00 0.00 0.00 52 1014.7
20260902171550 93 138 4.0 10.0 0.00 0.00 0.00 53 1014.8
20260902170614 92 84 5.0 10.0 0.00 0.00 0.00 54 1015.1
20260902165557 91 113 3.0 10.0 0.00 0.00 0.00 55 1015.2
20260902164607 90 84 3.0 9.0 0.00 0.00 0.00 57 1015.4
20260902163556 90 110 2.0 9.0 0.00 0.00 0.00 58 1015.4
20260902162534 89 98 2.0 8.0 0.00 0.00 0.00 59 1015.6
20260902161540 89 88 2.0 9.0 0.00 0.00 0.00 62 1015.6
20260902160551 88 93 2.0 9.0 0.00 0.00 0.00 63 1015.6
20260902155542 88 102 3.0 9.0 0.00 0.00 0.00 64 1015.7
20260902154545 87 153 2.0 9.0 0.00 0.00 0.00 65 1015.6
20260902153521 87 126 3.0 9.0 0.00 0.00 0.00 65 1015.6
20260902152525 86 143 2.0 8.0 0.00 0.00 0.00 68 1015.5
20260902150425 85 165 2.0 7.0 0.00 0.00 0.00 70 1015.4
20260902145449 84 121 0.0 2.0 0.00 0.00 0.00 72 1015.4
20260902144428 84 118 0.0 0.0 0.00 0.00 0.00 72 1015.4
20260902143402 83 107 0.0 6.0 0.00 0.00 0.00 73 1015.4
20260902142347 83 131 0.0 6.0 0.00 0.00 0.00 74 1015.4
20260902141322 83 176 2.0 8.0 0.00 0.00 0.00 74 1015.3
20260902140311 83 121 1.0 7.0 0.00 0.00 0.00 73 1015.4
20260902135246 83 96 3.0 9.0 0.00 0.00 0.00 75 1015.4
20260902131914 79 98 2.0 7.0 0.00 0.00 0.00 79 1015.4
20260902130841 78 107 0.0 5.0 0.00 0.00 0.00 82 1015.2
20260902125843 76 88 0.0 0.0 0.00 0.00 0.00 83 1015.2
20260902124813 76 103 0.0 0.0 0.00 0.00 0.00 84 1015.0
20260902123836 75 103 0.0 0.0 0.00 0.00 0.00 84 1014.9
20260902122814 75 103 0.0 0.0 0.00 0.00 0.00 84 1014.8
20260902121820 75 104 0.0 0.0 0.00 0.00 0.00 84 1014.7
20260902120824 75 116 0.0 0.0 0.00 0.00 0.00 84 1014.7
20260902115802 75 122 0.0 0.0 0.00 0.00 0.00 84 1014.6
20260902113700 75 119 1.0 3.0 0.00 0.00 0.00 84 1014.7
20260902112724 75 124 1.0 1.0 0.00 0.00 0.00 84 1014.7
20260902111704 75 119 0.0 2.0 0.00 0.00 0.00 85 1014.7
20260902110657 75 118 0.0 0.0 0.00 0.00 0.00 85 1014.7
20260902105706 75 119 0.0 0.0 0.00 0.00 0.00 85 1014.8
20260902104633 75 125 0.0 0.0 0.00 0.00 0.00 85 1014.8
20260902102502 75 126 0.0 0.0 0.00 0.00 0.00 84 1014.6
20260902101451 75 126 0.0 0.0 0.00 0.00 0.00 83 1014.6
20260902100446 76 126 0.0 0.0 0.00 0.00 0.00 83 1014.6